Flag Weather past 2 weeks in Hamamatsu, Japan

Now
56 °F

Cool.


Feels Like: 54 °F
Forecast: 56 / 63 °F
Wind: 7 mph from West

Location: Omaezaki

Current Time: Nov 25, 2014 at 3:15:45 AM

Latest Report: Nov 25, 2014 at 2:00 AM


Visibility: 11 mi

Pressure: 30.00 "Hg

Humidity: 62%

Dew point: 43 °F

Location of HamamatsuLocation

Historic Weather in Hamamatsu — Graph

°F

Hamamatsu temperature yesterday

Maximum temperature yesterday: 66 °F (at 1:00 PM)
Minimum temperature yesterday: 56 °F (at 4:00 AM)
Average temperature yesterday: 60 °F

Past Weeks' High & Low Weather Summary

 TemperatureHumidityPressure
High71 °F (Nov 10, 2:00 PM)100% (Nov 10, 7:00 AM)30.32 "Hg (Nov 10, 7:00 AM)
Low45 °F (Nov 16, 6:00 AM)30% (Nov 18, 4:00 PM)29.69 "Hg (Nov 12, 3:00 PM)
Average56 °F66%30.09 "Hg
* Reported Nov 10 2:00 AM — Nov 25 2:00 AM, Hamamatsu, Weather by CustomWeather, © 2014

Note: Actual official high and low records may vary slightly from our data, if they occured in-between our weather recording intervals... More about our weather records

Advertising

Hamamatsu weather history for previous 24 hours

 ConditionsComfort  
Time TempWeatherWind HumidityBarometerVisibility
2:00 AM
Nov 25
56 °FCool.7 mph62%30.00 "Hg11 mi
1:00 AM57 °FCool.8 mph69%30.01 "Hg7 mi
12:00 AM57 °FCool.8 mph64%30.03 "Hg8 mi
11:00 PM
Nov 24
57 °FCool.9 mph67%30.05 "Hg7 mi
10:00 PM58 °FCool.10 mph61%30.06 "Hg10 mi
9:00 PM60 °FRefreshingly cool.13 mph59%30.07 "Hg12 mi
8:00 PM61 °FRefreshingly cool.12 mph58%30.07 "Hg12 mi
7:00 PM61 °FRefreshingly cool.12 mph53%30.07 "Hg12 mi
6:00 PM63 °FMild.12 mph53%30.07 "Hg12 mi
5:00 PM64 °FMild.13 mph59%30.07 "Hg12 mi
4:00 PM64 °FMild.12 mph58%30.07 "Hg12 mi
3:00 PM65 °FMild.12 mph65%30.08 "Hg12 mi
2:00 PM66 °FMild.9 mph63%30.09 "Hg12 mi
1:00 PM66 °FMild.8 mph59%30.12 "Hg12 mi
12:00 PM65 °FMild.3 mph62%30.14 "Hg12 mi
11:00 AM64 °FMild.6 mph61%30.17 "Hg12 mi
10:00 AM61 °FCool.7 mph67%30.21 "Hg12 mi
9:00 AM58 °FCool.8 mph71%30.23 "Hg12 mi
8:00 AM58 °FCool.7 mph73%30.23 "Hg12 mi
7:00 AM56 °FCool.7 mph80%30.21 "Hg12 mi
5:00 AM56 °FCool.7 mph80%30.20 "Hg12 mi
4:00 AM56 °FCool.8 mph80%30.19 "Hg12 mi
3:00 AM56 °FCool.7 mph81%30.19 "Hg12 mi
Weather by CustomWeather, © 2014

See weather overviewHow to use our weather pages